Monistrol de Calders (Moianès)





Hora UTC 06:05
Temperatura 13.0 ºC
Humitat 87.0 %
Pressió 1011.0 hPa
Pluja 0.0 mm
Velocitat vent 0.0 km/h
Direcció vent SE

Dades diàries 2024-05-30



Hora UTC (hivern +1h; estiu +2h)
Temperatura (ºC) Humitat (%) Pressió (hPa) Velocitat vent (km/h) Precipitació (mm)
Hora UTC Aire Humitat Pressió Vel. Dir. Vel. Max Dir. Intent. màx 5 min.
00:05 15.7 84.0 1012.8 3.2 SE 3.2 0.0
00:10 15.6 85.0 1012.8 4.8 SE 9.7 0.0
00:15 15.5 85.0 1012.7 6.4 SE 9.7 0.0
00:20 15.3 85.0 1012.7 0.0 SSE 9.7 0.0
00:25 15.3 85.0 1012.6 3.2 SSE 9.7 0.0
00:30 15.3 85.0 1012.6 3.2 SE 4.8 0.0
00:35 15.2 85.0 1012.7 1.6 SE 4.8 0.0
00:40 15.2 85.0 1012.6 3.2 ESE 4.8 0.0
00:45 15.1 85.0 1012.6 3.2 ESE 4.8 0.0
00:50 14.9 85.0 1012.6 1.6 ESE 4.8 0.0
00:55 14.8 85.0 1012.6 0.0 ESE 3.2 0.0
01:00 14.8 85.0 1012.6 1.6 ESE 3.2 0.0
01:05 14.7 85.0 1012.5 3.2 SE 4.8 0.0
01:10 14.6 85.0 1012.4 8.0 SE 8.0 0.0
01:15 14.5 85.0 1012.4 4.8 SSE 9.7 0.0
01:20 14.3 85.0 1012.3 1.6 SE 8.0 0.0
01:25 14.2 85.0 1012.2 1.6 ESE 8.0 0.0
01:30 14.2 85.0 1012.2 8.0 ESE 12.9 0.0
01:35 14.2 85.0 1012.1 8.0 SSE 12.9 0.0
01:40 14.2 85.0 1012.0 4.8 SE 8.0 0.0
01:45 14.1 85.0 1011.9 4.8 SE 8.0 0.0
01:50 14.0 86.0 1011.8 3.2 SSE 8.0 0.0
01:55 13.9 85.0 1011.8 4.8 SSE 4.8 0.0
02:00 13.8 86.0 1011.8 1.6 ESE 4.8 0.0
02:05 13.8 86.0 1011.7 1.6 ESE 4.8 0.0
02:10 13.7 86.0 1011.7 1.6 ESE 3.2 0.0
02:15 13.6 86.0 1011.7 3.2 SE 4.8 0.0
02:20 13.4 86.0 1011.7 3.2 SSE 4.8 0.0
02:25 13.4 86.0 1011.7 1.6 SSE 3.2 0.0
02:30 13.3 86.0 1011.7 1.6 SE 4.8 0.0
02:35 13.3 86.0 1011.7 1.6 SSE 4.8 0.0
02:40 13.2 86.0 1011.7 3.2 SSE 8.0 0.0
02:45 13.2 87.0 1011.6 1.6 SE 8.0 0.0
02:50 13.1 87.0 1011.7 1.6 SE 4.8 0.0
02:55 13.1 87.0 1011.6 4.8 SE 4.8 0.0
03:00 12.9 87.0 1011.6 1.6 SE 4.8 0.0
03:05 12.9 87.0 1011.6 3.2 SE 6.4 0.0
03:10 12.8 87.0 1011.5 6.4 S 8.0 0.0
03:15 12.7 87.0 1011.5 8.0 SSE 9.7 0.0
03:20 12.6 87.0 1011.4 3.2 SE 9.7 0.0
03:25 12.6 87.0 1011.4 1.6 SE 9.7 0.0
03:30 12.5 87.0 1011.3 1.6 S 8.0 0.0
03:35 12.4 87.0 1011.2 3.2 SSE 4.8 0.0
03:40 12.4 87.0 1011.2 6.4 SSE 8.0 0.0
03:45 12.3 87.0 1011.1 3.2 SSE 9.7 0.0
03:50 12.2 87.0 1011.1 1.6 SSE 4.8 0.0
03:55 12.2 87.0 1011.0 1.6 SSE 4.8 0.0
04:00 12.2 87.0 1011.0 0.0 SSE 3.2 0.0
04:05 12.1 87.0 1010.9 0.0 SSE 3.2 0.0
04:10 12.1 87.0 1010.9 1.6 SSE 3.2 0.0
04:15 12.0 87.0 1011.0 1.6 SSE 3.2 0.0
04:20 11.9 87.0 1011.1 1.6 SSE 4.8 0.0
04:25 11.9 87.0 1011.1 0.0 SSE 3.2 0.0
04:30 11.9 87.0 1011.1 1.6 SSE 3.2 0.0
04:35 11.8 87.0 1011.1 3.2 SSE 4.8 0.0
04:40 11.8 87.0 1011.1 3.2 SSE 4.8 0.0
04:45 11.8 87.0 1011.2 0.0 SE 4.8 0.0
04:50 11.8 87.0 1011.1 3.2 S 6.4 0.0
04:55 11.7 87.0 1011.1 0.0 S 4.8 0.0
05:00 11.7 87.0 1011.1 1.6 SSE 3.2 0.0
05:05 11.7 87.0 1011.0 4.8 SE 8.0 0.0
05:10 11.8 87.0 1011.1 6.4 SSE 6.4 0.0
05:15 11.7 87.0 1011.0 1.6 S 4.8 0.0
05:20 11.7 87.0 1011.0 1.6 S 4.8 0.0
05:25 11.7 87.0 1011.1 3.2 SSE 6.4 0.0
05:30 11.7 87.0 1011.0 0.0 SSE 4.8 0.0
05:35 11.7 87.0 1010.9 4.8 SE 6.4 0.0
05:40 11.8 87.0 1011.0 3.2 SSE 8.0 0.0
05:45 11.9 87.0 1011.0 1.6 SSE 8.0 0.0
05:50 12.2 87.0 1011.1 1.6 SE 4.8 0.0
05:55 12.4 87.0 1011.0 1.6 SE 4.8 0.0
06:00 12.6 87.0 1011.1 0.0 SE 4.8 0.0
06:05 13.0 87.0 1011.0 0.0 SE 1.6 0.0
Màxima 15.7 87.0 1012.8 8.0 SSE 12.9 0.0
Mínima 11.7 84.0 1010.9
Total 0.0